Location: Unspecified
(48.2082°N, 0.0000°E)
Time: 21:26:05
(UTC+00:00)

Transit 4A - Pass Details

Date: 21 June 2019
Orbit: 862 x 982 km, 66.8° (Epoch: 17 July)

Event Time Altitude Azimuth Distance (km) Brightness Sun altitude
Rises 14:16:26 0° 320° (NW) 3,696 11.1 53.7°
Reaches altitude 10° 14:19:52 10° 338° (NNW) 2,746 10.4 53.2°
Maximum altitude 14:24:22 19° 23° (NNE) 2,132 9.7 52.5°
Drops below altitude 10° 14:28:50 10° 67° (ENE) 2,719 10.1 51.9°
Sets 14:32:12 0° 85° (E) 3,647 10.6 51.4°
